Yellow Mule RAWS (NWS)

Jump to table bottom
Date/Time Wind Direction Wind Speed knots Wind Gust knots RH % Accumulated Precip Inches Air Temp Fahrenheit
2022-11-30 12:04 S 9 13 84 13.72 9
2022-11-30 11:04 SSE 11 17 83 13.72 8
2022-11-30 10:04 SSE 11 17 83 13.72 6
2022-11-30 09:04 SSE 11 16 82 13.72 5
2022-11-30 08:04 SSE 10 17 82 13.72 4
2022-11-30 07:04 SE 11 17 82 13.72 3
2022-11-30 06:04 SSE 11 15 82 13.72 3
2022-11-30 05:04 SSE 10 13 81 13.72 2
2022-11-30 04:04 SSE 8 11 81 13.72 1
2022-11-30 03:04 SSE 6 10 80 13.72 0
2022-11-30 02:04 SSE 8 13 80 13.72 0
2022-11-30 01:04 SSE 10 14 79 13.72 -1
2022-11-30 00:04 SSE 9 12 80 13.72 -1
2022-11-29 23:04 SSE 8 12 79 13.72 -2
2022-11-29 22:04 SSE 7 10 80 13.72 -2
2022-11-29 21:04 SSE 5 15 80 13.72 -1
2022-11-29 20:04 S 13 21 74 13.72 0
2022-11-29 19:04 S 13 20 74 13.72 0
2022-11-29 18:04 SSW 16 28 72 13.72 0
2022-11-29 17:04 SSW 19 27 72 13.72 0
2022-11-29 16:04 SSW 17 30 74 13.72 0
2022-11-29 15:04 SSW 16 28 75 13.72 1
2022-11-29 14:04 SSW 15 26 69 13.72 2
2022-11-29 13:04 SSW 15 23 72 13.72 1
2022-11-29 12:04 SSW 13 23 75 13.72 1
2022-11-29 11:04 SSW 10 17 76 13.72 0
2022-11-29 10:04 SSW 12 16 67 13.72 0
2022-11-29 09:04 SSW 9 12 62 13.72 -1
2022-11-29 08:04 SSW 5 12 75 13.72 -4
2022-11-29 07:04 WSW 11 13 73 13.72 -4
2022-11-29 06:04 W 8 13 72 13.72 -3
2022-11-29 05:04 SW 8 17 79 13.72 -3
2022-11-29 04:04 SSW 10 15 79 13.72 -1
2022-11-29 03:04 SSW 9 11 73 13.72 -2
2022-11-29 02:04 SW 7 8 71 13.72 -2
2022-11-29 01:04 S 4 7 65 13.72 0
2022-11-29 00:04 SSW 3 4 75 13.72 0
2022-11-28 23:04 S 3 4 78 13.72 -1
2022-11-28 22:04 S 3 3 78 13.72 -3
2022-11-28 21:04 ESE 2 3 76 13.72 -2
2022-11-28 20:04 S 3 3 75 13.72 -2
2022-11-28 19:04 W 2 3 76 13.72 0
2022-11-28 18:04 NW 1 3 76 13.72 -1
2022-11-28 17:04 S 1 8 67 13.72 0
2022-11-28 16:04 SW 7 9 54 13.72 5
2022-11-28 15:04 WSW 6 9 49 13.72 7
2022-11-28 14:04 W 5 10 51 13.72 8
2022-11-28 13:04 SE 3 9 53 13.72 16
2022-11-28 12:04 SSE 3 6 66 13.7 11
2022-11-28 11:04 NNE 1 5 65 13.7 11